Content
SEND FEEDBACK

Daily
Averages
Monthly
Summary
Italy

FLORENCE - AIRPORT, ITALY


Home > Europe > Italy
Elevation: 125 feet     Latitude: 43 48N     Longitude: 011 12E

WEATHER
 
SELECT A DAY
Number of Records: 242,364;   Date Range: 7/1/96 - 7/27/14
 
SHARE

PRINT THIS DATA

[ ← Previous Day ]
WEATHER ALMANAC - JANUARY 10, 2013
[ Next Day → ]
[ °C ]   °F
Weather ElementAverageHighLow
Temperature47.4 °F51.8 °F (2:20 pm)46.4 °F (12:50 am)
Dewpoint45.4 °F48.2 °F (12:50 pm)44.6 °F (12:50 am)
Humidity92.4 %100 % (11:20 am)87 % (2:20 am)
Barometer29.91 in30.06 in (12:50 am)29.83 in (2:50 pm)
Wind Speed2.4 mph4.6 mph (1:50 am)
Weather ElementAverage
Visibility2.7 mi
Wind DirectionENE (74.9 °)

Weather ElementTotal
Precipitation---
Heating Degree Days15.9 (Base 65)
Averaged from 47 records on January 10, 2013
WEATHER CONDITIONS BREAKOUT
WIND DIRECTION BREAKOUT
WEATHER BY HOUR - JANUARY 10, 2013
[ °C ]   °F
Local TimeTemperatureDewpointHumidityBarometerVisibilityWind DirectionWind SpeedGust SpeedPrecipitationEventsConditions
12:50 AM46.4 °F44.6 °F93 %30.06 in3.7 miNorth (10°)1.2 mphMostly Cloudy
1:20 AM46.4 °F44.6 °F93 %30.04 in3.7 miVariable2.3 mphMostly Cloudy
1:50 AM46.4 °F44.6 °F93 %30.04 in3.7 miEast (80°)4.6 mphMostly Cloudy
2:20 AM48.2 °F44.6 °F87 %30.04 in3.7 miEast (90°)3.5 mphMostly Cloudy
2:50 AM46.4 °F44.6 °F93 %30.04 in3.7 miEast (90°)4.6 mphMostly Cloudy
3:20 AM48.2 °F44.6 °F87 %30.01 in3.7 miVariable2.3 mphMostly Cloudy
3:50 AM46.4 °F44.6 °F93 %30.01 in3.1 miVariable2.3 mphMostly Cloudy
4:20 AM46.4 °F44.6 °F93 %30.01 in2.8 miWNW (290°)3.5 mphMostly Cloudy
4:50 AM46.4 °F44.6 °F93 %29.98 in2.8 miCalmMostly Cloudy
5:20 AM46.4 °F44.6 °F93 %29.98 in2.2 miVariable1.2 mphMostly Cloudy
5:50 AM46.4 °F44.6 °F93 %29.95 in2.2 miSSE (150°)3.5 mphMostly Cloudy
6:20 AM46.4 °F44.6 °F93 %29.95 in2.5 miSSE (150°)2.3 mphMostly Cloudy
6:50 AM46.4 °F44.6 °F93 %29.95 in3.1 miCalmMostly Cloudy
7:20 AM46.4 °F44.6 °F93 %29.95 in3.1 miVariable1.2 mphMostly Cloudy
7:50 AM46.4 °F44.6 °F93 %29.95 in3.1 miCalmMostly Cloudy
8:20 AM46.4 °F44.6 °F93 %29.95 in2.5 miWNW (290°)3.5 mphMostly Cloudy
8:50 AM46.4 °F44.6 °F93 %29.95 in1.9 miWest (280°)2.3 mphMostly Cloudy
9:20 AM46.4 °F44.6 °F93 %29.95 in1.9 miCalmMostly Cloudy
9:50 AM48.2 °F44.6 °F87 %29.95 in1.9 miVariable2.3 mphLight Drizzle
10:20 AM46.4 °F44.6 °F93 %29.95 in1.9 miVariable2.3 mphLight Drizzle
10:50 AM46.4 °F44.6 °F93 %29.95 in1.6 miENE (60°)3.5 mphLight Drizzle
11:20 AM46.4 °F46.4 °F100 %29.92 in1.2 miSouth (180°)3.5 mphRainLight Rain
11:50 AM46.4 °F46.4 °F100 %29.92 in1.1 miVariable1.2 mphLight Drizzle
12:20 PM48.2 °F46.4 °F93 %29.89 in1.1 miVariable1.2 mphMostly Cloudy
12:50 PM50.0 °F48.2 °F94 %29.89 in1.1 miVariable1.2 mphMostly Cloudy
1:20 PM50.0 °F48.2 °F94 %29.86 in1.2 miVariable2.3 mphMostly Cloudy
1:50 PM50.0 °F48.2 °F94 %29.86 in1.6 miVariable1.2 mphMostly Cloudy
2:20 PM51.8 °F48.2 °F88 %29.86 in2.2 miWest (280°)3.5 mphMostly Cloudy
2:50 PM51.8 °F48.2 °F88 %29.83 in2.2 miVariable2.3 mphMostly Cloudy
3:20 PM51.8 °F48.2 °F88 %29.83 in3.1 miCalmScattered Clouds
3:50 PM50.0 °F46.4 °F87 %29.83 in3.7 miWest (270°)3.5 mphScattered Clouds
4:20 PM50.0 °F46.4 °F87 %29.83 in3.7 miWNW (300°)3.5 mphPartly Cloudy
4:50 PM50.0 °F46.4 °F87 %29.83 in3.1 miWNW (300°)2.3 mphMostly Cloudy
5:20 PM48.2 °F46.4 °F93 %29.83 in2.5 miCalmMostly Cloudy
5:50 PM46.4 °F44.6 °F93 %29.83 in1.9 miCalmScattered Clouds
6:20 PM46.4 °F44.6 °F93 %29.83 in1.9 miENE (60°)3.5 mphMostly Cloudy
6:50 PM46.4 °F46.4 °F100 %29.83 in2.5 miEast (90°)3.5 mphMostly Cloudy
7:20 PM46.4 °F44.6 °F93 %29.83 in3.1 miESE (110°)3.5 mphMostly Cloudy
7:50 PM46.4 °F44.6 °F93 %29.83 in3.1 miESE (110°)3.5 mphMostly Cloudy
8:20 PM48.2 °F44.6 °F87 %29.83 in3.1 miVariable2.3 mphMostly Cloudy
8:50 PM46.4 °F44.6 °F93 %29.83 in3.1 miVariable1.2 mphMostly Cloudy
9:20 PM46.4 °F44.6 °F93 %29.86 in3.1 miVariable2.3 mphMostly Cloudy
9:50 PM46.4 °F44.6 °F93 %29.86 in3.1 miEast (80°)3.5 mphMostly Cloudy
10:20 PM46.4 °F44.6 °F93 %29.83 in3.7 miENE (70°)4.6 mphScattered Clouds
10:50 PM46.4 °F44.6 °F93 %29.83 in3.7 miEast (80°)4.6 mphScattered Clouds
11:20 PM46.4 °F44.6 °F93 %29.83 in3.7 miEast (100°)4.6 mphScattered Clouds
11:50 PM46.4 °F46.4 °F100 %29.83 in3.7 miVariable2.3 mphMostly Cloudy
Hourly data recorded from LIRQ, located miles away from Florence - Airport, Italy







STORIES FROM OUR PARTNERS